This is the latest recevied weather packets stored in our database for station/object K1AWR. If no packets are shown the sender has not sent any weather packets the latest 10 day(s).
| Time | Temp. | Humidity | Pressure | Rain* | Wind** | Luminosity | Snow |
|---|---|---|---|---|---|---|---|
| 1777358351 | 5.56° C | 84% | 1022.9 hPa | 0 mm | - | 0 W/m² | - |
| 1777358049 | 6.11° C | 83% | 1022.8 hPa | 0 mm | - | 0 W/m² | - |
| 1777357747 | 6.11° C | 83% | 1022.9 hPa | 0 mm | - | 0 W/m² | - |
| 1777357442 | 6.11° C | 83% | 1022.8 hPa | 0 mm | - | 0 W/m² | - |
| 1777357139 | 6.11° C | 82% | 1022.8 hPa | 0 mm | - | 0 W/m² | - |
| 1777356837 | 6.11° C | 82% | 1022.8 hPa | 0 mm | - | 0 W/m² | - |
| 1777356535 | 6.11° C | 82% | 1022.9 hPa | 0 mm | - | 0 W/m² | - |
| 1777356231 | 6.11° C | 82% | 1023 hPa | 0 mm | - | 0 W/m² | - |
| 1777355927 | 6.67° C | 83% | 1023 hPa | 0 mm | - | 0 W/m² | - |
| 1777355624 | 6.11° C | 83% | 1023.1 hPa | 0 mm | - | 0 W/m² | - |
| 1777355322 | 6.11° C | 83% | 1023.3 hPa | 0 mm | - | 0 W/m² | - |
| 1777355018 | 6.11° C | 82% | 1023.4 hPa | 0 mm | - | 0 W/m² | - |
| 1777354713 | 6.67° C | 82% | 1023.3 hPa | 0 mm | - | 0 W/m² | - |
| 1777354409 | 6.67° C | 82% | 1023.3 hPa | 0 mm | - | 0 W/m² | - |
| 1777354107 | 6.67° C | 81% | 1023.2 hPa | 0 mm | - | 0 W/m² | - |
| 1777353803 | 6.67° C | 81% | 1023.4 hPa | 0 mm | - | 0 W/m² | - |
| 1777353501 | 6.67° C | 79% | 1023.5 hPa | 0 mm | - | 0 W/m² | - |
| 1777353199 | 6.67° C | 79% | 1023.4 hPa | 0 mm | - | 0 W/m² | - |
| 1777352896 | 6.67° C | 78% | 1023.3 hPa | 0 mm | - | 0 W/m² | - |
| 1777352595 | 7.22° C | 79% | 1023.8 hPa | 0 mm | - | 0 W/m² | - |
| 1777352292 | 7.22° C | 78% | 1023.8 hPa | 0 mm | - | 0 W/m² | - |
| 1777351989 | 7.78° C | 76% | 1023.8 hPa | 0 mm | - | 0 W/m² | - |
| 1777351686 | 7.22° C | 77% | 1024 hPa | 0 mm | - | 0 W/m² | - |
| 1777351384 | 7.78° C | 76% | 1024.2 hPa | 0 mm | - | 0 W/m² | - |
| 1777351083 | 7.22° C | 77% | 1024.2 hPa | 0 mm | - | 0 W/m² | - |
* Rain latest hour (hover to see other rain measurements)
** Current wind speed in m/s (hover to see current wind gust speed)